Location: Castej�n de Sos
(42.5123°N, 0.4914°E)
Time: 05:05:24
(UTC+00:00)

Daily predictions for brighter satellites

Satellite Brightness Start Highest point End
(mag) Time Altitude Azimuth Time Altitude Azimuth Time Altitude Azimuth
USA 234 4.2 03:29:58 10° NE 03:33:57 40° ENE 03:33:57 40° ENE
CZ-4C R/B 3.8 03:54:02 36° NNE 03:55:40 41° NE 04:03:13 10° ESE
Lacrosse 5 3.2 04:14:15 35° SE 04:14:15 35° SE 04:17:08 10° SE
Cosmos 2297 Rocket 3.9 04:24:20 22° N 04:24:20 22° N 04:26:17 10° NNE
Cosmos 2227 Rocket 3.7 04:27:52 24° N 04:27:52 24° N 04:30:09 10° NNE
Cosmos 1072 Rocket 4.5 04:18:50 10° S 04:24:55 77° E 04:31:03 10° N
Cosmos 1513 Rocket 4.5 04:32:26 10° S 04:38:51 89° E 04:45:19 10° N
Nadezhda 4 Rocket 4.4 04:36:03 10° N 04:42:14 60° E 04:48:18 10° SSE
COBE Rocket 4.1 04:44:03 10° S 04:48:02 58° S 04:48:02 58° S
STARLINK 4.4 04:51:55 44° SSE 04:51:55 44° SSE 04:54:51 10° SE
COSMO-SKYMED 1 3.3 04:48:44 10° SSE 04:52:56 52° ENE 04:55:02 27° N
Okean O Rocket 3.7 04:52:16 10° NE 04:56:02 27° E 04:59:47 10° SSE
STARLINK-33 4.5 04:57:38 39° S 04:57:38 39° S 05:00:26 10° SE
STARLINK-50 4.5 04:59:13 39° S 04:59:13 39° S 05:02:05 10° SE
Cosmos 1607 4.3 04:58:44 42° NW 04:58:44 42° NW 05:04:03 10° NNE
SL-16 R/B 2.1 04:59:54 58° WNW 05:00:37 63° WSW 05:06:12 10° S
Cosmos 2242 Rocket 3.9 04:58:13 25° N 05:00:48 66° E 05:05:16 10° SSE
GEOS 3 Rocket 3.5 04:56:03 10° SSE 05:01:04 63° SW 05:01:33 59° W
STARLINK-56 4.4 05:02:25 40° S 05:02:25 40° S 05:05:22 10° SSE
Cosmos 1470 Rocket 3.4 04:57:12 10° S 05:01:40 82° W 05:06:11 10° N
Cosmos 724 4.3 04:55:54 11° SSW 05:01:49 82° ESE 05:07:48 10° NE
Cosmos 1371 Rocket 3.9 04:57:47 10° SSW 05:03:03 85° WNW 05:08:18 10° NNE
Starlink (trailer) 4.4 05:03:59 39° S 05:03:59 39° S 05:06:58 10° SSE
STARLINK-38 4.4 05:05:35 39° S 05:05:35 39° S 05:08:36 10° SSE
Cosmos 614 Rocket 3.8 05:04:28 45° NNW 05:06:05 84° WSW 05:11:11 10° SSE
Cosmos 1862 Rocket 3.5 05:06:35 64° WSW 05:06:35 64° WSW 05:10:43 10° S
STARLINK-65 4.4 05:07:10 39° S 05:07:10 39° S 05:10:14 10° SSE
Meteor 1-27 Rocket 3.7 05:03:30 25° NNW 05:07:03 69° W 05:12:55 10° S
Cosmos 407 Rocket 3.4 05:06:12 36° NNW 05:08:29 84° WSW 05:13:50 10° SSE
Cosmos 2082 4.1 05:10:07 41° NW 05:10:07 41° NW 05:14:53 10° NNE
STARLINK-69 4.4 05:12:01 36° SSW 05:12:01 36° SSW 05:15:09 10° SSE
FALCON 9 R/B 4.1 05:07:47 23° SW 05:12:54 58° SSE 05:39:31 10° E
STARLINK-66 4.4 05:13:33 37° SSW 05:13:33 37° SSW 05:16:45 10° SSE
Cosmos 1140 Rocket 3.6 05:11:47 22° NNW 05:15:13 77° ENE 05:20:25 10° SSE
Cosmos 2034 Rocket 3.9 05:10:40 10° SSW 05:16:54 66° W 05:23:15 10° N
SKYMED 3 4.4 05:12:43 10° SSE 05:17:03 86° WSW 05:19:27 26° NNW
STARLINK-70 4.4 05:18:18 34° SSW 05:18:18 34° SSW 05:21:35 10° SSE
ATLAS 5 CENTAUR R/B 3.3 05:19:24 20° NNW 05:19:24 20° NNW 05:21:54 10° NNE
USA 234 3.8 05:13:14 10° NE 05:19:13 40° NNW 05:21:19 32° WNW
Meteor 2-11 Rocket 4.5 05:21:29 10° SSW 05:27:25 54° WNW 05:33:25 10° N
Cosmos 1023 Rocket 4.4 05:23:55 21° NNW 05:27:28 81° WSW 05:32:42 10° SSE
BREEZE-M DEB (TANK) 3.7 05:23:22 17° WSW 05:31:38 66° NNW 05:35:13 10° NE
CZ-4B DEB 4.1 05:33:44 10° N 05:39:15 74° WNW 05:44:46 10° SSW
SKYMED 2 3.8 05:36:55 10° S 05:41:05 46° W 05:43:42 21° NW
Cosmos 1484 Rocket 3.3 05:37:58 10° N 05:41:36 35° WNW 05:45:10 10° SW
Cosmos 1340 4.1 05:38:46 10° SSE 05:42:16 39° E 05:45:49 10° NNE
PSLV R/B 4.4 05:38:45 10° N 05:42:33 37° WNW 05:46:21 10° SW
CZ-4C R/B 3.1 05:39:15 20° NW 05:44:38 58° WSW 05:52:45 10° SSE
Cosmos 1092 Rocket 3.9 05:40:02 10° NNW 05:46:10 69° W 05:52:15 10° S
Cosmos 1624 Rocket 4.4 05:42:36 10° SW 05:47:36 41° WNW 05:52:40 10° N
SJ-12 4.3 05:47:47 10° N 05:51:40 40° WNW 05:55:30 10° SW
Cosmos 2263 Rocket 2.2 05:46:49 10° SSW 05:52:24 88° ESE 05:58:01 10° NNE
Cosmos 2056 Rocket 3.9 05:47:54 10° SW 05:52:37 37° WNW 05:57:23 10° N
Lacrosse 5 3.4 05:53:29 16° WSW 05:54:26 17° WSW 05:57:40 10° SSW
FALCON 9 DEB 3.7 05:53:58 23° N 05:54:40 27° NNE 05:56:46 10° E
STARLINK 1053 4.5 05:55:18 18° NNW 05:57:14 30° NNE 06:00:18 10° E
BREEZE-M DEB 4.2 05:54:11 18° WNW 05:58:22 44° SW 06:02:07 10° SE
Cosmos 2227 4.2 05:52:52 10° SW 05:58:34 63° WNW 06:04:18 10° NNE
Cosmos 676 Rocket 4.1 05:54:14 11° NNW 05:59:14 57° WSW 06:04:24 10° S
STARLINK 1061 4.4 05:57:38 17° NNW 05:59:41 31° NNE 06:02:45 10° E
SMAP 4.1 05:57:29 10° NNE 06:02:02 49° E 06:06:31 10° S
STARLINK 1067 4.4 06:00:18 16° NNW 06:02:28 32° NNE 06:05:35 10° E
Meteor 1-14 Rocket 4.3 05:58:39 10° SSW 06:04:33 82° W 06:10:34 10° N
STARLINK 1058 4.3 06:02:53 16° NNW 06:05:09 34° NNE 06:08:18 10° E
Radarsat Rocket 4.3 05:59:23 10° NNE 06:05:32 82° ESE 06:12:24 10° SSW
Cosmos 2297 Rocket 4.0 06:06:11 11° NW 06:06:11 11° NW 06:07:40 10° NNW
STARLINK 1043 4.2 06:05:30 15° NW 06:07:54 35° NNE 06:11:04 10° E
ALOS 2.7 06:04:50 10° N 06:09:08 37° WNW 06:13:24 10° SW
Timation 1 Rocket 4.3 06:03:45 10° SSW 06:09:43 85° WNW 06:15:43 10° NNE
Cosmos 2227 Rocket 4.0 06:09:44 11° NW 06:09:51 11° NW 06:11:37 10° NNW
STARLINK 1065 4.2 06:08:04 15° NW 06:10:34 36° NNE 06:13:46 10° E
Cosmos 1954 Rocket 4.3 06:05:48 10° NNW 06:10:50 48° WSW 06:15:53 10° S
Cosmos 1346 Rocket 2.7 06:07:10 10° S 06:11:01 86° E 06:14:55 10° N
Meteor 1-25 Rocket 4.4 06:06:20 10° SSW 06:11:43 49° WNW 06:17:12 10° N
Okean 1-7 3.4 06:07:59 10° NNW 06:12:09 42° W 06:16:18 10° SSW
STARLINK 1063 4.1 06:10:50 14° NW 06:13:28 38° NNE 06:16:41 10° E
CZ-4B R/B 3.3 06:08:21 10° N 06:13:48 57° WNW 06:19:19 10° SSW
Cosmos 1420 Rocket 4.1 06:09:25 10° SW 06:14:30 51° WNW 06:19:34 10° N
STARLINK 1064 4.0 06:13:21 13° NW 06:16:05 40° NNE 06:19:20 10° E
STARLINK 1041 4.0 06:15:59 13° NW 06:18:50 41° NNE 06:22:06 10° ESE
FALCON 9 DEB 2.7 06:17:13 16° NW 06:18:54 49° NE 06:21:13 10° ESE
Cosmos 2221 Rocket 3.5 06:16:10 10° N 06:20:35 85° W 06:24:59 10° S
FENGYUN 3A 4.2 06:16:19 10° N 06:21:13 36° WNW 06:26:04 10° SW
STARLINK 1038 3.9 06:18:39 12° NW 06:21:37 43° NNE 06:24:55 10° ESE
CZ-4 R/B 4.3 06:18:53 10° NE 06:21:41 19° E 06:24:31 10° SE
PSLV R/B 2.9 06:19:58 12° WSW 06:22:11 56° S 06:24:36 10° E
STARLINK 1046 3.8 06:21:17 11° NW 06:24:23 46° NNE 06:27:41 10° ESE
FALCON 9 DEB 2.5 06:23:05 14° NW 06:25:01 60° NE 06:27:22 10° ESE
Cosmos 1741 Rocket 4.0 06:20:13 10° NNW 06:25:28 90° ENE 06:30:42 10° SSE
STARLINK 1039 3.8 06:23:57 11° NW 06:27:10 48° NNE 06:30:29 10° ESE
STARLINK 1045 3.8 06:24:41 11° NW 06:27:57 49° NNE 06:31:17 10° ESE
COSMO-SKYMED 1 4.3 06:27:00 10° SW 06:29:24 15° W 06:31:49 10° WNW
Cosmos 1461 3.8 06:27:27 10° NW 06:31:18 33° WSW 06:35:15 10° S
Okean O Rocket 2.5 06:28:35 10° N 06:32:19 28° WNW 06:36:03 10° SW
Meteor 1-19 Rocket 4.2 06:26:55 10° NNW 06:32:19 60° W 06:37:49 10° S
H-2A R/B 2.6 06:28:48 10° N 06:32:30 70° WNW 06:36:14 10° SSW
Cosmos 1943 3.4 06:27:06 10° NNW 06:32:32 52° WSW 06:37:57 10° S
STARLINK 1034 3.2 06:29:53 10° NW 06:32:47 55° NNE 06:35:40 10° ESE
STARLINK 1027 3.1 06:30:34 10° NW 06:33:28 56° NNE 06:36:21 10° ESE
STARLINK 1028 3.1 06:30:48 10° NW 06:33:41 56° NNE 06:36:34 10° ESE
STARLINK 1021 3.1 06:31:02 10° NW 06:33:56 56° NNE 06:36:48 10° ESE
STARLINK 1019 3.1 06:31:12 10° NW 06:34:08 57° NE 06:37:03 10° ESE
STARLINK 1012 3.1 06:31:27 10° NW 06:34:22 57° NE 06:37:15 10° ESE
STARLINK 1010 3.1 06:31:41 10° NW 06:34:35 57° NE 06:37:28 10° ESE
STARLINK 1052 3.1 06:31:44 10° NW 06:34:39 57° NE 06:37:33 10° ESE
STARLINK 1026 3.1 06:31:56 10° NW 06:34:50 58° NNE 06:37:43 10° ESE
STARLINK 1013 3.1 06:32:09 10° NW 06:35:03 58° NE 06:37:56 10° ESE
STARLINK 1009 3.1 06:32:22 10° NW 06:35:15 58° NNE 06:38:09 10° ESE
STARLINK 1015 3.1 06:32:35 10° NW 06:35:29 59° NE 06:38:23 10° ESE
STARLINK 1016 3.1 06:32:49 10° NW 06:35:43 59° NE 06:38:37 10° ESE
STARLINK 1008 3.0 06:33:04 10° NW 06:35:58 59° NE 06:38:51 10° ESE
OE (NEXTSAT) 4.4 06:32:29 10° WNW 06:36:01 82° NNE 06:39:33 10° ESE
STARLINK 1014 3.0 06:33:16 10° NW 06:36:10 59° NE 06:39:03 10° ESE
STARLINK 1017 3.0 06:33:20 10° NW 06:36:14 59° NE 06:39:07 10° ESE
STARLINK 1025 3.0 06:33:29 10° NW 06:36:24 60° NE 06:39:17 10° ESE
STARLINK 1023 3.0 06:33:57 10° NW 06:36:52 60° NE 06:39:45 10° ESE
STARLINK 1007 3.0 06:34:09 10° NW 06:37:03 61° NE 06:39:57 10° ESE
STARLINK 1048 3.0 06:34:23 10° NW 06:37:17 61° NNE 06:40:11 10° ESE
STARLINK 1049 3.0 06:34:37 10° NW 06:37:31 61° NE 06:40:25 10° ESE
STARLINK 1040 2.9 06:34:42 10° NW 06:37:38 66° NE 06:40:34 10° ESE
STARLINK 1051 3.0 06:34:49 10° NW 06:37:44 62° NE 06:40:38 10° ESE
STARLINK 1037 3.0 06:35:04 10° NW 06:37:59 62° NE 06:40:53 10° ESE
STARLINK 1059 3.0 06:35:17 10° NW 06:38:12 62° NE 06:41:06 10° ESE
STARLINK 1057 3.0 06:35:30 10° NW 06:38:25 63° NE 06:41:18 10° ESE
Envisat 3.8 06:33:27 10° NNE 06:38:29 59° E 06:43:28 10° S
STARLINK 1068 3.0 06:35:57 10° NW 06:38:52 63° NE 06:41:47 10° ESE
STARLINK 1029 3.0 06:36:11 10° NW 06:39:06 64° NE 06:42:00 10° ESE
STARLINK 1060 2.9 06:36:24 10° NW 06:39:20 64° NE 06:42:14 10° ESE
Cosmos 1452 Rocket 3.9 06:34:27 10° SW 06:39:24 40° WNW 06:44:24 10° N
STARLINK 1030 3.0 06:36:36 10° NW 06:39:33 65° NE 06:42:29 10° ESE
STARLINK 1020 2.9 06:36:51 10° NW 06:39:46 65° NNE 06:42:40 10° ESE
Helios 1A Rocket 4.0 06:36:46 10° NNW 06:39:57 22° WNW 06:43:06 10° WSW
STARLINK 1033 2.9 06:37:31 10° NW 06:40:26 66° NE 06:43:21 10° ESE
STARLINK 1031 2.9 06:37:45 10° NW 06:40:41 66° NE 06:43:35 10° ESE
STARLINK 1024 2.9 06:37:57 10° NW 06:40:55 67° NE 06:43:51 10° ESE
STARLINK 1035 2.9 06:38:12 10° NW 06:41:07 67° NE 06:44:03 10° ESE
STARLINK 1032 2.9 06:38:25 10° NW 06:41:21 67° NE 06:44:15 10° ESE
STARLINK 1011 2.9 06:38:36 10° NW 06:41:34 68° NE 06:44:30 10° ESE
STARLINK 1036 2.9 06:38:53 10° NW 06:41:48 68° NE 06:44:42 10° ESE
STARLINK 1047 2.9 06:39:20 10° NW 06:42:15 69° NE 06:45:10 10° ESE
Okean 1 4.4 06:40:46 10° NW 06:44:01 25° W 06:47:16 10° SW
Okean-O 3.0 06:39:51 10° NNE 06:44:18 74° ESE 06:48:43 10° S
YAOGAN 6 3.7 06:42:00 10° NNE 06:45:36 52° E 06:49:12 10° S
Meteor 1-5 Rocket 4.4 06:41:24 10° S 06:47:23 89° W 06:53:19 10° N
Cosmos 1850 Rocket 4.2 06:42:16 10° NNW 06:47:31 56° WSW 06:52:42 10° S
